STARLINK-1474, 45738

Orbit data source: Space-Track

STARLINK-1474, 45738 is a payload satellite owned by SpaceX/Seattle (US) in LEO that was launched on Sat, 13 Jun 2020 UTC via an FALCON 9 launch vehicle from the Air Force Eastern Test Range (AFETR). Payload-class satellites include a variety of spacecraft equipped with specific instruments for various scientific and technological missions. These include communications satellites like Starlink; space stations such as the ISS; scientific satellites like the Hubble; Earth observation satellites from companies like Planet Labs, Umbra, and HawkEye 360; GPS; miniature CubeSats for education and research; and military/defense satellites.

Loading next visibility...
Identifier
45738, 2020-038J
Orbit
LEO
Country
Flag of USUS
Related business
Manufacturer
SpaceX/Seattle
Mission
Partially operational Commercial Communications
Bus & Motor
STARLINK, Unknown motor
Mass
260 kg wet, ~248 kg dry
Launch date (UTC)
2020-06-13 (5 years ago)
Launch vehicle
FALCON 9
Launch site
Air Force Eastern Test Range (AFETR)
Object type
Payload
Rocket body
Debris
Shape & HBR
Box + 1 Pan, 10.1 m
Radar Cross Section
13.562 m², Large (>1 m²)

Expand to show TLE details & history
Last TLE update: 9 hours ago

TLE from 9 hours ago
0 STARLINK-1474
1 45738U 20038J   25288.43834205  .00077755  00000-0  80438-3 0  9991
2 45738  53.0380  73.0779 0003663 221.5330 138.5406 15.64062717295647
Epoch: 2025-10-15T10:31Z
TLE epoch observation values (Epoch: 2025-10-15T10:31:12.753Z)
Latitude
Longitude
-108.93765°
Altitude
378.69 km
Speed
7.683 km/s
True Right ascension
04h 52m 18s
True Declination
0° 00' 00"
Sunlit
Object was in full shadow at epoch
Visualization orbit readout
Latitude
Unknown
Longitude
Unknown
Altitude
Unknown
Speed
Unknown
Apparent Right ascension
Unknown
Apparent Declination
Unknown
Sunlit
N/A
Visualization observer readout
Local Sidereal Time
14:32:05
Azimuth
Unknown
Elevation
Unknown
Doppler factor
Unknown
Orbital elements
Apogee altitude
378.69 km
Perigee altitude
373.742 km
Semi-major axis
6,754.353 km
Eccentricity
0.00037
Inclination
53.038°
RAAN
73.0779°
Arg. of periapsis
221.533°
True anomaly
138.56838°
Mean anomaly
138.5406°
Eccentric anomaly
138.55449°
Mean motion
3.90992 °/min
Orbital period
92.07 mins
BSTAR
0.00080438
Loading maneuver chart data...
Computing Atmospheric mass density...

Documentation

Showing up to 5 results
|